THORAD AGENA D DEB, 5024

Orbit data source: Space-Track

THORAD AGENA D DEB, 5024 is space debris in SSO originally from a launch on Wed, 08 Apr 1970 UTC launched from the Air Force Western Test Range (AFWTR). Debris objects in space refer to the collection of defunct objects orbiting the Earth. Examples of debris include non-operational satellites, rocket bodies, and fragments generated from explosions, collisions, or faulty payload assembly.

Loading next visibility...
Identifier
5024, 1970-025HY
Orbit
SSO
Country
Flag of USUS
Related business
Manufacturer
Unknown
Mission
Spacecraft
Bus & Motor
Unknown
Mass
Unknown
Launch date (UTC)
1970-04-08 (56 years ago)
Launch vehicle
Unknown
Launch site
Air Force Western Test Range (AFWTR)
Object type
Payload
Rocket body
Debris
Shape & HBR
Unknown shape, 0.1 m
Radar Cross Section
Small (<0.1 m²)

Expand to show TLE details & history
Last TLE update: 14 hours ago

TLE from 14 hours ago
0 THORAD AGENA D DEB
1 05024U 70025HY  25340.77982844  .00004417  00000-0  18508-2 0  9998
2 05024  99.8058 279.6059 0084304 308.6298  50.7352 14.24687644844605
Epoch: 2025-12-06T18:42Z
TLE epoch observation values (Epoch: 2025-12-06T18:42:57.177Z)
Latitude
0.00001°
Longitude
-76.935°
Altitude
774.377 km
Speed
7.487 km/s
True Right ascension
18h 38m 25s
True Declination
0° 00' 00"
Sunlit
Object was in daylight at epoch
Visualization orbit readout
Latitude
Unknown
Longitude
Unknown
Altitude
Unknown
Speed
Unknown
Apparent Right ascension
Unknown
Apparent Declination
Unknown
Sunlit
N/A
Visualization observer readout
Local Sidereal Time
06:27:20
Azimuth
Unknown
Elevation
Unknown
Doppler factor
Unknown
Orbital elements
Apogee altitude
867.322 km
Perigee altitude
746.179 km
Semi-major axis
7,184.888 km
Eccentricity
0.00843
Inclination
99.8058°
RAAN
279.6059°
Arg. of periapsis
308.6298°
True anomaly
51.48815°
Mean anomaly
50.7352°
Eccentric anomaly
51.11117°
Mean motion
3.5638 °/min
Orbital period
101.02 mins
BSTAR
0.0018508
Loading maneuver chart data...
Computing Atmospheric mass density...

Documentation

Showing up to 5 results
|